STARLINK-30891, 58367

Orbit data source: Space-Track

STARLINK-30891, 58367 is a payload satellite owned by SpaceX/Seattle (US) in LEO that was launched on Sat, 18 Nov 2023 UTC via an FALCON 9 launch vehicle from the Air Force Eastern Test Range (AFETR). Payload-class satellites include a variety of spacecraft equipped with specific instruments for various scientific and technological missions. These include communications satellites like Starlink; space stations such as the ISS; scientific satellites like the Hubble; Earth observation satellites from companies like Planet Labs, Umbra, and HawkEye 360; GPS; miniature CubeSats for education and research; and military/defense satellites.

Loading next visibility...
Identifier
58367, 2023-177S
Orbit
LEO
Country
Flag of USUS
Related business
Manufacturer
SpaceX/Seattle
Mission
Operational Commercial Communications
Bus & Motor
STARLINK V2M, Unknown motor
Mass
730 kg wet, ~700 kg dry
Launch date (UTC)
2023-11-18 (3 years ago)
Launch vehicle
FALCON 9
Launch site
Air Force Eastern Test Range (AFETR)
Object type
Payload
Rocket body
Debris
Shape & HBR
Box + 2 Pan, 17.7 m
Radar Cross Section
33.884 m², Large (>1 m²)

Expand to show TLE details & history
Last TLE update: 2 days ago

TLE from 2 days ago
0 STARLINK-30891
1 58367U 23177S   26171.27388655  .00002076  00000-0  84946-4 0  9990
2 58367  43.0042 131.4947 0001656 275.4813  84.5850 15.27577347143850
Epoch: 2026-06-20T06:34Z
TLE epoch observation values (Epoch: 2026-06-20T06:34:23.797Z)
Latitude
-0.00002°
Longitude
124.40465°
Altitude
482.726 km
Speed
7.626 km/s
True Right ascension
08h 45m 58s
True Declination
0° 00' 00"
Sunlit
Object was in daylight at epoch
Visualization orbit readout
Latitude
Unknown
Longitude
Unknown
Altitude
Unknown
Speed
Unknown
Apparent Right ascension
Unknown
Apparent Declination
Unknown
Sunlit
N/A
Visualization observer readout
Local Sidereal Time
21:23:36
Azimuth
Unknown
Elevation
Unknown
Doppler factor
Unknown
Orbital elements
Apogee altitude
486.138 km
Perigee altitude
483.865 km
Semi-major axis
6,863.139 km
Eccentricity
0.00017
Inclination
43.0042°
RAAN
131.4947°
Arg. of periapsis
275.4813°
True anomaly
84.60389°
Mean anomaly
84.585°
Eccentric anomaly
84.59445°
Mean motion
3.81732 °/min
Orbital period
94.31 mins
BSTAR
0.000084946
Loading maneuver chart data...
Computing Atmospheric mass density...
Loading historical data...
Loading historical data...
Loading historical data...
Loading historical data...
Loading historical data...
Loading historical data...
Loading historical data...

Documentation

Showing up to 5 results
|